This demonstration page uses our WeatherBlox Daily Observations layout. Learn more.

Left ArrowRight Arrow

47.50024, -111.30081

Hourly Observations for January 18, 2016

Temp ( °F °C ) Dew Point ( °F °C ) Humidity (%) Winds ( mph kmh ) Pressure ( in mb ) Visibility ( mi km ) Precip ( " mm )
12:53 am 00:53 Clear 26 -3.3 20 -6.7 78 78 S 6 9 29.93 1013 10 16 0.00 0.00
1:53 am 01:53 Mostly Clear 33 0.6 26 -3.3 75 75 SSW 13 20 29.91 1013 10 16 0.00 0.00
2:53 am 02:53 Clear 36 2.2 28 -2.2 73 73 SSW 16 26 29.89 1012 10 16 0.00 0.00
3:53 am 03:53 Mostly Cloudy 36 2.2 29 -1.7 76 76 SSW 12 19 29.91 1013 10 16 0.00 0.00
4:53 am 04:53 Clear 37 2.8 29 -1.7 73 73 SW 15 24 29.91 1013 10 16 0.00 0.00
5:53 am 05:53 Clear 36 2.2 30 -1.1 79 79 SW 14 22 29.91 1013 10 16 0.00 0.00
6:53 am 06:53 Clear 36 2.2 30 -1.1 79 79 SW 16 26 29.91 1013 10 16 0.00 0.00
7:53 am 07:53 Cloudy 37 2.8 30 -1.1 76 76 SW 16 26 29.90 1013 10 16 0.00 0.00
8:53 am 08:53 Cloudy 36 2.2 30 -1.1 79 79 SSW 15 24 29.95 1014 10 16 0.00 0.00
9:53 am 09:53 Cloudy 36 2.2 30 -1.1 79 79 SW 9 15 29.98 1015 10 16 0.00 0.00
10:53 am 10:53 Partly Cloudy 36 2.2 30 -1.1 79 79 SW 12 19 29.98 1015 10 16 0.00 0.00
11:53 am 11:53 Sunny 37 2.8 30 -1.1 76 76 SW 17 28 29.93 1014 10 16 0.00 0.00
12:53 pm 12:53 Mostly Sunny 38 3.3 30 -1.1 73 73 WSW 12 19 29.96 1015 10 16 0.00 0.00
1:53 pm 13:53 Cloudy 41 5 30 -1.1 65 65 WNW 6 9 29.96 1014 10 16 0.00 0.00
2:53 pm 14:53 Cloudy 42 5.6 30 -1.1 62 62 NNE 6 9 29.97 1015 10 16 0.00 0.00
3:53 pm 15:53 Mostly Cloudy 36 2.2 28 -2.2 73 73 E 7 11 30.01 1016 10 16 0.00 0.00
4:53 pm 16:53 Mostly Sunny 33 0.6 26 -3.3 75 75 E 7 11 30.05 1018 10 16 0.00 0.00
5:53 pm 17:53 Clear 31 -0.6 24 -4.4 76 76 ESE 6 9 30.07 1018 10 16 0.00 0.00
6:53 pm 18:53 Clear 30 -1.1 22 -5.6 72 72 S 10 17 30.09 1019 10 16 0.00 0.00
7:53 pm 19:53 Clear 29 -1.7 22 -5.6 75 75 S 10 17 30.09 1019 10 16 0.00 0.00
8:53 pm 20:53 Clear 27 -2.8 22 -5.6 81 81 SSW 13 20 30.10 1019 10 16 0.00 0.00
9:53 pm 21:53 Clear 26 -3.3 20 -6.7 78 78 SSW 12 19 30.11 1020 10 16 0.00 0.00
10:53 pm 22:53 Clear 24 -4.4 19 -7.2 81 81 SSW 12 19 30.13 1020 10 16 0.00 0.00
11:53 pm 23:53 Clear 25 -3.9 19 -7.2 78 78 SW 10 17 30.13 1020 10 16 0.00 0.00

Powered by AerisWeather